TimeCST,TemperatureF,Dew PointF,Humidity,Sea Level PressureIn,VisibilityMPH,Wind Direction,Wind SpeedMPH,Gust SpeedMPH,PrecipitationIn,Events,Conditions,WindDirDegrees,DateUTC
12:53 AM,32.0,30.0,92,29.39,10.0,ENE,4.6,-,N/A,,Mostly Cloudy,60,2013-11-16 06:53:00
1:53 AM,35.1,32.0,89,29.36,10.0,Calm,Calm,-,N/A,,Mostly Cloudy,0,2013-11-16 07:53:00
2:53 AM,35.1,33.1,92,29.35,10.0,East,3.5,-,N/A,,Overcast,90,2013-11-16 08:53:00
3:53 AM,35.1,34.0,96,29.31,10.0,Calm,Calm,-,N/A,,Scattered Clouds,0,2013-11-16 09:53:00
4:53 AM,34.0,33.1,96,29.30,10.0,NNW,6.9,-,N/A,,Overcast,330,2013-11-16 10:53:00
5:53 AM,35.1,33.1,92,29.29,10.0,North,5.8,-,N/A,,Mostly Cloudy,350,2013-11-16 11:53:00
6:53 AM,33.1,32.0,96,29.29,10.0,Calm,Calm,-,N/A,,Scattered Clouds,0,2013-11-16 12:53:00
7:53 AM,30.0,28.9,96,29.31,10.0,Calm,Calm,-,N/A,,Mostly Cloudy,0,2013-11-16 13:53:00
8:53 AM,34.0,32.0,92,29.29,10.0,Calm,Calm,-,N/A,,Scattered Clouds,0,2013-11-16 14:53:00
9:53 AM,37.9,35.1,89,29.28,10.0,West,5.8,-,N/A,,Clear,270,2013-11-16 15:53:00
10:53 AM,43.0,35.1,74,29.27,10.0,NW,6.9,-,N/A,,Clear,310,2013-11-16 16:53:00
11:53 AM,46.0,36.0,68,29.26,10.0,WNW,5.8,-,N/A,,Clear,290,2013-11-16 17:53:00
12:53 PM,45.0,37.0,74,29.24,10.0,WSW,10.4,-,N/A,,Clear,250,2013-11-16 18:53:00
1:53 PM,48.0,36.0,63,29.25,10.0,WNW,10.4,-,N/A,,Clear,290,2013-11-16 19:53:00
2:53 PM,46.9,36.0,66,29.24,10.0,WNW,9.2,-,N/A,,Clear,290,2013-11-16 20:53:00
3:53 PM,48.0,34.0,58,29.26,10.0,West,13.8,-,N/A,,Partly Cloudy,270,2013-11-16 21:53:00
4:53 PM,45.0,33.1,63,29.29,10.0,West,9.2,-,N/A,,Scattered Clouds,280,2013-11-16 22:53:00
5:53 PM,42.1,32.0,67,29.31,10.0,West,10.4,-,N/A,,Clear,270,2013-11-16 23:53:00
6:53 PM,41.0,33.1,73,29.34,10.0,WNW,10.4,-,N/A,,Partly Cloudy,300,2013-11-17 00:53:00
7:53 PM,37.9,30.9,76,29.37,10.0,NW,8.1,-,N/A,,Scattered Clouds,310,2013-11-17 01:53:00
8:53 PM,36.0,30.0,79,29.38,10.0,NW,8.1,-,N/A,,Overcast,320,2013-11-17 02:53:00
9:53 PM,39.9,30.0,68,29.40,10.0,North,6.9,-,N/A,,Overcast,350,2013-11-17 03:53:00
10:53 PM,36.0,28.0,73,29.39,10.0,North,6.9,-,N/A,,Clear,360,2013-11-17 04:53:00
11:53 PM,34.0,28.0,79,29.40,10.0,NNE,6.9,-,N/A,,Clear,20,2013-11-17 05:53:00